Wetbulb
50.90 46.26 42.98 45.94 47.21 46.81 45.43 42.63 41.96 45.03 47.22 45.70 45.77 45.99 47.52 50.32 51.44 51.66 52.82 53.96 54.36 54.86 56.74 58.10 58.62 59.61 60.56 61.55 61.91 62.34 62.41 62.88 62.70 62.27 64.33 64.84 64.96 65.92 65.00 65.43 67.51 65.93 66.76 66.73
46.53 42.97 47.36 48.42 47.74 45.69 44.81 42.92 43.03 46.02 47.38 46.12 45.60 45.28 47.96 49.59 51.00 52.21 52.74 53.48 54.24 55.07 55.67 55.73 57.82 59.55 60.10 60.62 61.69 62.29 62.64 63.29 62.90 62.50 62.91 63.98 64.52 64.93 64.90 64.86 66.57 67.29 66.28 65.36
43.90 45.93 48.44 46.43 45.13 43.47 44.06 42.46 42.98 42.81 45.87 47.00 45.72 44.04 46.79 48.75 50.59 51.63 52.07 52.81 53.51 54.30 54.42 55.59 57.08 58.86 60.07 60.32 61.41 61.96 62.77 63.08 63.07 62.24 62.54 63.06 64.09 64.60 63.22 64.33 64.94 65.78 66.01 65.02
45.17 47.94 45.56 44.79 43.75 45.18 41.29 46.56 45.01 43.57 42.39 39.03 44.67 37.46 45.19 46.61 48.31 50.36 51.31 51.45 51.59 52.28 52.96 55.72 57.18 58.42 59.44 60.68 62.23 62.72 62.76 62.69 62.67 61.84 61.31 61.64 61.04 60.60 62.77 64.03 64.70 65.23 65.74 64.45
43.54 44.89 44.53 43.04 44.16 46.56 43.43 46.80 45.04 44.49 42.90 42.36 42.16 39.13 43.37 44.38 45.06 48.77 50.44 50.15 51.52 52.26 52.85 55.36 57.20 58.57 59.94 61.24 61.94 62.66 62.66 62.69 63.06 62.01 61.57 61.22 60.64 61.48 63.14 63.91 63.77 64.58 63.87 63.17
46.02 49.79 47.95 46.68 47.58 47.47 47.45 45.03 43.44 43.24 42.17 35.70 41.10 39.90 41.06 42.07 44.79 48.39 49.50 51.15 51.49 52.14 53.39 56.08 58.06 59.04 59.92 61.27 61.84 61.56 61.68 61.78 62.22 61.97 61.89 61.71 61.45 61.65 61.59 62.20 61.03 61.45 61.43 61.51
44.43 44.77 47.96 48.46 44.94 47.94 45.54 41.54 35.33 32.69 34.05 34.30 40.50 38.57 41.91 45.63 45.84 49.24 50.16 50.52 51.99 53.55 54.43 55.73 56.96 58.05 58.98 59.84 59.23 59.32 59.53 59.71 61.70 61.72 61.51 62.10 62.10 60.60 61.51 60.86 59.80 60.06 60.51 61.32
36.68 35.95 44.48 48.07 45.59 43.67 43.68 42.56 35.04 29.20 31.70 35.50 38.50 36.12 42.28 45.77 46.99 49.35 50.99 50.66 52.23 53.64 54.95 55.01 57.22 58.05 58.59 59.37 57.83 58.55 59.34 59.32 59.87 59.09 58.98 60.12 60.23 60.06 60.99 61.38 60.65 60.13 59.98 60.27
35.60 37.11 45.77 46.86 48.24 47.28 43.43 39.75 44.59 37.07 37.47 34.38 38.61 42.08 45.47 45.96 46.48 47.62 49.20 50.07 51.21 53.16 52.26 53.70 57.10 57.86 58.39 59.02 57.62 57.80 58.33 58.84 58.38 58.65 60.32 58.55 58.45 59.53 60.48 59.89 61.00 61.69 61.36 61.32
36.37 30.33 40.64 43.51 46.82 47.35 45.79 47.00 37.12 37.26 30.24 28.64 35.88 38.02 38.49 42.86 44.83 47.16 46.36 49.14 51.35 51.55 51.66 55.60 56.55 57.39 58.33 59.01 58.76 57.56 58.13 58.45 58.44 58.91 59.07 59.32 58.71 59.73 59.95 60.31 58.81 58.55 58.39 58.66
36.75 33.83 35.37 40.08 40.81 40.97 42.08 39.87 41.74 41.42 38.04 33.63 32.07 36.49 44.15 44.40 45.22 45.95 46.84 49.35 51.07 52.14 53.02 55.23 56.28 57.18 57.82 58.39 58.61 58.73 58.59 58.20 58.25 58.47 58.52 57.79 57.68 57.47 57.50 57.27 56.55 56.76 57.43 57.33
35.82 34.49 30.34 33.93 41.98 43.64 42.66 39.78 41.63 36.57 35.05 38.32 37.43 37.44 44.99 46.36 47.72 47.85 47.89 49.47 51.76 52.94 53.26 55.32 55.94 56.21 56.53 56.81 57.40 57.04 57.24 57.51 57.25 56.86 56.72 55.82 55.81 56.22 56.15 56.02 56.20 57.40 56.99 55.96
34.69 31.02 25.83 30.08 37.60 40.92 35.62 35.97 35.66 36.09 38.67 36.52 33.95 37.69 46.04 47.79 47.61 48.74 49.07 50.61 51.95 53.01 52.79 55.05 54.83 55.17 55.85 56.30 56.41 56.16 55.86 56.16 55.91 55.85 56.89 56.17 54.86 54.95 54.90 55.17 55.43 54.95 54.48 54.43
37.10 31.12 27.54 24.24 30.22 33.21 31.70 32.93 33.17 32.68 32.33 35.57 38.07 37.72 41.37 41.69 42.33 45.10 47.61 50.88 52.22 53.15 53.35 54.56 53.28 54.17 55.81 56.09 56.12 56.35 55.89 55.71 55.18 55.41 55.27 53.70 52.98 53.15 54.37 55.03 53.17 53.60 54.22 53.16
33.32 26.14 29.60 30.93 32.63 32.59 31.86 32.12 32.21 30.34 31.34 28.31 31.42 33.58 39.95 40.22 42.12 44.58 46.30 49.61 51.05 51.91 53.36 53.87 52.46 52.83 55.73 55.53 55.92 56.00 55.18 55.03 54.69 54.67 53.22 51.49 51.48 52.64 51.94 51.86 51.63 52.87 52.12 53.17
33.84 26.17 29.09 26.53 31.03 31.66 29.61 32.27 33.36 32.72 32.05 32.27 31.69 32.28 40.18 42.78 44.28 44.44 46.25 47.19 49.46 51.47 52.84 53.90 52.92 52.80 54.96 55.58 55.50 55.30 54.43 54.41 54.03 53.74 51.91 50.67 50.41 52.09 51.40 50.81 50.69 51.13 51.33 52.12
29.09 27.21 25.83 21.80 29.02 29.16 25.20 30.72 32.06 33.14 35.26 32.90 29.47 35.44 40.09 40.52 41.12 44.36 45.67 46.24 47.20 49.77 52.31 53.04 54.10 53.27 53.94 55.50 56.23 54.82 54.10 54.06 53.59 52.17 51.80 50.91 50.22 51.90 51.00 50.20 49.89 49.68 50.13 51.32
28.04 26.92 26.71 22.32 26.38 16.66 30.72 36.57 34.29 33.28 35.19 35.51 35.78 38.29 40.39 40.93 43.69 44.46 46.33 45.98 45.80 47.47 48.94 52.52 54.67 55.04 54.08 56.39 56.25 55.97 55.00 53.15 52.06 50.86 50.67 50.28 49.69 49.67 49.64 49.45 48.05 47.75 48.74 48.73
32.43 28.78 23.13 19.54 21.34 26.79 30.23 33.22 32.63 30.59 31.60 38.12 36.47 38.79 41.21 42.39 42.53 43.34 46.00 46.58 46.62 47.17 48.85 50.82 53.76 56.08 54.97 56.23 56.32 55.53 54.45 52.66 51.41 50.08 50.16 49.54 49.12 48.24 48.10 48.08 47.68 47.58 47.53 47.76
31.40 30.59 24.84 23.25 18.74 17.32 30.61 35.81 37.38 36.28 27.20 39.52 40.48 39.75 40.18 40.27 36.57 42.22 44.47 46.57 47.63 48.60 49.19 52.68 54.04 55.76 54.97 55.95 56.32 54.53 53.78 52.11 51.09 50.04 49.32 49.41 49.36 47.96 47.06 46.69 47.21 47.46 47.48 47.42
26.67 26.52 22.76 23.15 20.77 26.59 35.27 36.64 36.88 26.36 30.29 38.65 39.16 38.42 37.67 38.37 41.19 42.99 45.16 46.20 47.84 48.68 49.65 53.66 54.63 54.87 54.33 55.39 55.73 53.97 53.60 51.87 52.45 50.38 49.14 48.68 48.35 47.69 48.21 47.80 48.42 47.73 47.68 48.63
25.37 23.39 22.97 24.31 22.49 20.73 37.60 35.38 30.72 36.37 39.82 39.27 38.46 38.75 38.88 40.93 42.29 42.77 44.17 45.49 46.66 47.92 49.60 52.93 53.79 54.09 54.26 55.11 55.15 54.09 53.31 54.17 52.17 49.37 48.36 48.09 46.86 48.26 50.03 49.89 49.57 49.61 49.14 48.24
24.73 29.52 26.73 27.87 28.56 36.81 36.97 37.32 39.74 40.78 38.85 39.07 38.81 40.61 40.05 40.14 41.33 42.62 43.82 44.97 46.70 48.16 49.61 52.98 53.34 52.80 53.20 54.15 55.20 54.03 54.43 53.44 50.05 48.25 47.36 46.43 46.07 50.05 49.80 49.02 48.47 47.90 48.07 47.25
32.78 34.99 30.21 30.88 34.45 36.07 38.08 39.44 40.42 41.25 40.06 40.16 40.72 40.50 40.16 38.62 41.61 42.08 43.51 44.55 46.06 48.24 49.05 52.10 52.43 50.93 51.15 53.29 54.91 55.11 54.77 52.97 49.87 47.63 46.68 45.76 46.40 48.91 49.21 48.95 48.53 47.56 46.72 45.66
32.15 33.17 31.61 32.07 35.00 36.95 38.13 39.24 40.24 40.90 42.04 40.45 41.15 40.73 39.77 39.71 39.77 41.33 41.93 43.81 45.63 47.48 48.72 51.58 52.00 50.90 51.11 52.84 54.08 55.25 53.94 52.41 49.48 47.06 45.63 45.72 46.73 48.66 47.91 48.21 47.98 47.42 47.22 46.01
34.33 31.97 29.88 30.16 36.24 36.18 37.58 40.49 41.22 40.29 40.37 41.23 39.84 39.60 40.37 40.57 40.10 40.82 41.27 43.62 45.19 46.54 47.87 50.32 51.97 51.87 51.49 52.14 53.29 54.26 53.70 52.66 48.99 45.49 44.94 45.99 47.80 48.37 47.92 46.15 43.78 42.88 43.46 42.98
MSLP
1010.62 1010.29 1009.50 1009.37 1009.84 1009.51 1009.36 1009.26 1008.72 1008.53 1008.90 1008.74 1007.48 1006.42 1005.84 1005.62 1005.35 1004.85 1004.33 1003.92 1003.74 1004.07 1004.71 1005.70 1007.09 1008.15 1008.83 1009.33 1009.84 1010.26 1010.70 1011.05 1011.47 1011.70 1012.02 1012.72 1012.89 1013.15 1013.47 1013.64 1013.51 1013.91 1013.96 1014.15
1010.79 1009.23 1009.03 1009.47 1009.89 1009.88 1009.57 1009.29 1008.58 1008.31 1008.65 1008.61 1007.50 1006.27 1005.48 1004.98 1004.20 1003.74 1003.43 1003.08 1002.90 1003.16 1004.13 1005.86 1007.01 1007.92 1008.60 1009.10 1009.73 1010.20 1010.54 1010.93 1011.40 1011.70 1011.89 1012.01 1012.25 1012.85 1013.09 1013.48 1013.23 1013.34 1013.63 1014.07
1008.93 1008.28 1008.84 1009.48 1009.54 1009.60 1009.30 1009.08 1008.60 1008.44 1008.58 1008.37 1007.21 1005.88 1004.27 1004.13 1003.53 1003.24 1003.21 1003.18 1003.15 1003.13 1003.76 1005.40 1006.75 1007.72 1008.58 1009.12 1009.73 1010.03 1010.42 1010.84 1011.25 1011.66 1011.94 1012.23 1012.42 1012.56 1013.06 1012.99 1012.90 1012.91 1013.37 1013.78
1009.21 1008.58 1008.87 1009.13 1008.98 1009.32 1008.63 1008.88 1009.03 1008.90 1008.83 1007.66 1007.54 1004.98 1004.03 1003.85 1003.19 1002.83 1002.74 1002.77 1003.40 1003.88 1004.46 1005.21 1006.73 1007.69 1008.57 1009.27 1009.87 1010.21 1010.61 1010.82 1011.21 1011.60 1011.70 1011.74 1011.61 1011.70 1011.90 1012.16 1012.69 1012.64 1012.67 1013.35
1008.29 1008.51 1008.48 1008.44 1008.03 1008.98 1008.38 1009.04 1009.16 1009.09 1008.61 1007.97 1007.22 1006.40 1003.65 1004.10 1003.12 1002.53 1002.90 1003.52 1004.26 1004.76 1004.97 1005.61 1006.86 1007.87 1008.69 1009.46 1009.90 1010.29 1010.64 1011.03 1011.28 1011.48 1011.58 1011.50 1011.65 1011.77 1011.95 1012.35 1012.54 1012.64 1012.94 1013.39
1008.28 1008.17 1008.37 1007.88 1007.96 1008.22 1008.76 1009.01 1009.45 1009.61 1008.80 1007.34 1006.32 1005.97 1003.45 1003.64 1003.17 1002.76 1003.29 1004.02 1004.88 1005.52 1005.77 1006.28 1007.30 1008.22 1008.96 1009.61 1010.11 1010.66 1010.92 1011.16 1011.36 1011.53 1011.56 1011.69 1011.78 1011.89 1012.07 1012.33 1012.74 1012.94 1013.28 1013.64
1007.97 1007.38 1007.45 1007.84 1007.76 1007.92 1008.70 1008.96 1008.51 1009.11 1008.23 1006.29 1006.60 1005.90 1004.02 1003.57 1003.81 1003.65 1003.63 1004.22 1005.36 1005.93 1006.39 1006.93 1007.70 1008.34 1009.14 1009.61 1010.53 1011.00 1011.27 1011.47 1011.43 1011.48 1011.85 1011.88 1011.91 1012.45 1012.40 1012.59 1012.84 1013.00 1013.39 1013.52
1009.00 1007.11 1006.57 1006.42 1006.21 1006.71 1007.65 1007.77 1007.77 1007.48 1007.38 1006.75 1007.11 1005.28 1003.74 1003.98 1004.06 1004.28 1004.63 1005.06 1005.90 1006.52 1007.13 1007.80 1008.04 1008.59 1009.34 1009.82 1010.75 1011.11 1011.39 1011.70 1011.93 1012.28 1012.69 1012.56 1012.47 1012.68 1012.68 1012.70 1012.81 1012.92 1013.34 1013.63
1010.84 1007.88 1006.78 1006.71 1006.32 1006.37 1006.78 1007.21 1007.03 1007.66 1008.08 1007.72 1006.12 1004.92 1004.14 1004.09 1003.94 1004.58 1004.79 1005.44 1006.29 1007.12 1008.15 1008.44 1008.36 1008.86 1009.43 1010.01 1010.96 1011.24 1011.52 1011.84 1012.13 1012.62 1012.80 1012.82 1012.94 1012.89 1012.84 1012.93 1012.88 1012.91 1013.09 1013.29
1013.67 1011.60 1008.85 1007.93 1007.30 1006.49 1006.04 1007.05 1007.98 1008.49 1007.81 1006.54 1005.12 1004.38 1003.72 1003.97 1004.12 1004.33 1005.06 1005.82 1006.61 1007.84 1008.52 1008.45 1008.61 1009.05 1009.56 1010.07 1010.89 1011.50 1011.74 1011.96 1012.24 1012.70 1012.81 1012.71 1013.15 1012.98 1013.08 1013.17 1013.32 1013.37 1013.40 1013.54
1016.10 1014.45 1010.76 1009.81 1007.96 1006.94 1006.99 1007.45 1007.29 1007.52 1007.28 1005.28 1004.41 1004.02 1003.72 1004.38 1005.10 1005.29 1005.51 1006.26 1006.88 1007.76 1008.27 1008.57 1008.87 1009.37 1009.81 1010.26 1010.69 1011.44 1011.90 1012.13 1012.42 1012.72 1012.81 1013.08 1013.36 1013.48 1013.55 1013.61 1013.73 1013.61 1013.50 1013.55
1016.92 1015.88 1013.02 1010.72 1009.12 1008.99 1009.14 1008.81 1007.66 1007.20 1006.79 1006.19 1005.07 1003.95 1004.16 1004.74 1005.63 1006.14 1006.36 1006.63 1007.04 1007.60 1008.32 1008.52 1008.95 1009.48 1009.90 1010.31 1010.69 1011.24 1011.84 1012.12 1012.62 1013.00 1013.18 1013.46 1013.72 1013.76 1013.80 1013.90 1013.91 1013.71 1013.64 1013.73
1017.41 1015.80 1013.90 1011.30 1009.74 1010.46 1011.20 1011.92 1011.51 1009.66 1008.05 1006.40 1005.76 1004.31 1004.60 1004.53 1005.99 1006.42 1006.53 1006.80 1007.14 1007.43 1008.20 1008.35 1008.95 1009.34 1009.71 1010.14 1010.54 1011.07 1011.92 1012.32 1012.69 1013.05 1013.01 1013.42 1013.80 1014.00 1014.03 1014.12 1014.19 1014.20 1014.03 1013.89
1018.35 1016.89 1015.51 1013.51 1011.61 1012.71 1012.73 1012.88 1012.66 1012.82 1010.59 1008.19 1006.27 1005.91 1005.72 1005.41 1006.18 1006.28 1006.60 1006.69 1006.93 1007.30 1007.97 1008.23 1009.13 1009.35 1009.46 1009.90 1010.31 1010.91 1011.75 1012.43 1012.84 1013.06 1013.34 1013.71 1014.01 1014.16 1014.18 1014.43 1014.60 1014.48 1014.17 1014.01
1018.38 1016.94 1015.60 1014.32 1013.62 1012.97 1012.88 1012.76 1012.82 1012.85 1012.12 1011.10 1009.83 1008.38 1006.73 1006.76 1006.63 1006.06 1006.64 1006.56 1006.73 1007.02 1007.54 1008.03 1008.82 1009.28 1009.24 1009.66 1010.14 1010.75 1011.86 1012.50 1012.96 1013.17 1013.69 1014.00 1014.27 1014.36 1014.58 1014.79 1014.91 1014.84 1014.55 1014.53
1018.16 1017.16 1015.99 1014.67 1013.70 1012.85 1011.57 1011.64 1011.55 1011.81 1011.80 1011.95 1011.12 1009.79 1008.47 1007.38 1007.12 1006.20 1006.17 1006.39 1006.54 1006.76 1007.16 1007.86 1008.72 1009.12 1009.04 1009.31 1009.90 1010.82 1011.76 1012.52 1013.04 1013.35 1013.92 1014.23 1014.44 1014.49 1014.75 1015.11 1015.24 1015.18 1015.03 1015.08
1018.22 1017.50 1016.17 1014.31 1013.17 1012.17 1010.57 1009.90 1010.10 1010.54 1010.63 1011.20 1010.68 1009.63 1008.65 1007.58 1007.34 1006.76 1006.43 1006.08 1006.45 1006.18 1006.48 1007.01 1007.67 1008.44 1008.84 1008.83 1009.40 1010.39 1011.35 1012.30 1012.98 1013.48 1014.05 1014.27 1014.52 1014.66 1015.05 1015.45 1015.57 1015.75 1015.70 1015.64
1017.72 1017.31 1016.71 1014.95 1013.34 1010.93 1009.63 1009.26 1009.49 1009.13 1008.97 1009.88 1010.39 1009.15 1008.08 1007.84 1007.58 1007.10 1006.76 1006.39 1006.28 1006.22 1006.29 1006.38 1006.66 1007.43 1008.42 1008.48 1009.15 1010.11 1011.08 1011.97 1012.81 1013.50 1014.18 1014.43 1014.68 1015.12 1015.46 1015.74 1016.15 1016.42 1016.40 1016.41
1016.48 1016.84 1016.57 1015.36 1012.98 1010.94 1009.30 1008.78 1008.70 1008.69 1008.25 1008.44 1009.04 1008.70 1007.70 1007.98 1007.31 1007.08 1006.97 1006.82 1006.78 1006.53 1006.28 1006.00 1005.80 1006.46 1007.76 1008.20 1008.94 1009.90 1010.87 1011.83 1012.64 1013.34 1014.10 1014.55 1014.91 1015.40 1015.75 1016.09 1016.60 1016.89 1017.01 1017.16
1015.24 1016.01 1016.32 1014.88 1013.00 1010.33 1008.01 1007.64 1008.43 1008.45 1007.99 1008.27 1007.73 1007.89 1008.15 1007.94 1006.88 1006.51 1007.27 1007.08 1006.95 1006.65 1006.42 1005.78 1005.37 1005.82 1007.09 1007.94 1008.68 1009.72 1010.44 1011.62 1012.45 1013.19 1014.03 1014.66 1015.03 1015.58 1016.06 1016.52 1017.04 1017.40 1017.65 1017.76
1014.25 1014.37 1013.87 1013.49 1012.76 1010.09 1008.00 1008.16 1008.46 1007.85 1007.98 1008.01 1008.32 1008.55 1008.50 1008.09 1007.77 1007.74 1007.56 1007.24 1007.23 1006.81 1006.25 1005.82 1005.72 1005.96 1006.84 1007.80 1008.60 1009.39 1010.19 1011.11 1012.24 1013.24 1014.11 1014.89 1015.32 1015.80 1016.23 1016.79 1017.32 1017.72 1017.98 1018.16
1012.74 1013.07 1012.94 1012.87 1011.25 1008.81 1007.80 1008.14 1007.60 1007.23 1007.94 1008.17 1008.51 1008.68 1008.78 1008.44 1008.12 1008.01 1007.48 1007.16 1007.15 1006.71 1006.22 1006.17 1006.03 1006.44 1007.00 1007.66 1008.43 1009.15 1010.03 1010.87 1012.27 1013.41 1014.20 1015.03 1015.59 1015.91 1016.22 1016.73 1017.37 1017.80 1018.13 1018.52
1012.01 1011.53 1011.31 1011.83 1009.42 1008.32 1007.86 1007.12 1007.22 1007.33 1007.31 1008.00 1008.43 1008.52 1008.63 1008.40 1008.21 1007.88 1007.22 1007.16 1007.15 1006.76 1006.41 1006.37 1006.43 1006.83 1007.29 1007.82 1008.30 1008.93 1009.81 1011.08 1012.30 1013.42 1014.31 1015.24 1015.84 1015.91 1016.58 1016.99 1017.49 1018.04 1018.52 1018.88
1010.72 1010.80 1010.49 1010.06 1008.71 1008.41 1007.99 1007.43 1007.40 1007.48 1007.46 1007.38 1007.41 1007.46 1007.81 1008.02 1007.81 1007.64 1007.45 1007.29 1007.21 1006.93 1006.72 1006.59 1006.72 1007.09 1007.53 1007.92 1008.32 1008.88 1009.80 1011.07 1012.18 1013.28 1014.34 1015.30 1015.60 1016.09 1016.72 1017.27 1017.75 1018.16 1018.80 1019.33
1010.96 1010.45 1009.32 1008.35 1008.04 1007.71 1007.10 1006.86 1006.82 1006.85 1007.38 1007.83 1007.73 1007.58 1007.60 1007.68 1007.91 1007.84 1007.71 1007.44 1007.27 1006.89 1006.77 1006.65 1006.63 1007.14 1007.60 1007.97 1008.29 1008.76 1009.83 1010.91 1012.10 1013.16 1014.36 1015.21 1015.49 1016.07 1016.89 1017.43 1018.01 1018.42 1018.95 1019.53
1009.97 1008.96 1008.30 1007.05 1006.99 1006.89 1006.33 1006.06 1006.13 1006.45 1006.74 1007.17 1007.79 1007.65 1007.73 1007.96 1007.89 1007.78 1007.52 1007.46 1007.29 1006.74 1006.59 1006.44 1006.46 1006.79 1007.46 1007.96 1008.25 1008.70 1009.68 1010.56 1011.80 1012.96 1014.23 1014.98 1015.18 1015.98 1016.89 1017.74 1018.73 1019.50 1019.83 1020.16
Wind_Speed
12 12 16 19 17 18 12 12 15 15 5 9 14 19 20 16 17 18 19 18 16 16 16 14 12 12 11 10 10 10 9 8 6 5 7 7 7 6 5 7 10 9 8 9
8 19 19 13 10 15 17 19 20 18 11 13 16 18 23 22 23 22 21 21 20 18 15 12 14 14 13 12 11 9 8 7 6 5 5 4 6 6 6 6 8 10 9 9
21 10 8 15 17 16 17 19 20 20 16 18 20 21 18 10 10 10 13 14 14 15 17 14 15 15 13 12 10 8 7 6 6 6 4 4 4 3 5 7 7 9 10 10
16 19 12 12 17 17 18 15 15 15 12 10 2 10 13 12 15 10 9 11 11 10 11 14 15 15 14 11 8 7 6 6 5 7 7 9 6 6 6 6 7 7 9 9
7 7 15 21 22 12 15 5 7 7 11 15 15 11 8 4 14 6 3 2 3 5 9 16 16 15 13 11 9 6 6 5 6 7 7 6 7 5 3 4 5 5 4 8
22 14 12 16 14 18 3 8 2 6 7 13 16 13 10 6 5 4 2 2 3 5 10 14 14 14 12 10 8 6 6 5 6 6 5 7 8 6 5 5 4 3 3 5
14 21 22 15 13 11 16 7 3 7 9 14 2 7 13 7 4 14 12 1 5 8 12 15 16 13 12 11 9 7 8 6 5 5 3 4 4 4 5 4 3 4 3 4
16 18 17 18 27 17 22 17 7 10 13 11 2 9 5 2 2 9 5 2 8 11 12 13 14 12 12 11 10 9 8 8 7 6 4 4 5 4 4 5 4 4 5 5
10 23 13 12 18 23 18 19 15 6 4 9 9 9 7 5 2 3 4 6 12 13 12 13 13 12 11 11 10 9 9 9 8 6 5 5 4 4 4 4 3 2 3 4
5 13 17 17 13 18 22 13 8 5 8 9 10 13 8 5 9 13 2 8 13 13 12 13 12 12 10 10 10 9 9 9 8 7 6 5 5 5 4 2 2 2 3 5
6 7 14 14 12 17 15 14 12 8 10 9 8 5 6 8 7 10 1 9 13 14 13 13 11 10 10 10 10 10 9 9 7 4 5 5 4 4 3 3 2 1 2 4
2 5 10 15 20 12 9 14 21 13 15 13 10 6 10 8 5 5 2 8 13 14 14 13 12 11 10 10 9 9 7 7 7 6 6 6 5 3 4 4 2 2 3 2
8 6 11 15 12 6 5 3 12 12 12 17 13 6 8 13 1 5 3 5 10 14 14 14 12 12 11 11 9 10 7 7 6 6 7 6 5 4 4 4 3 2 1 2
13 14 16 16 14 5 7 2 5 7 7 9 16 10 11 8 7 4 2 4 7 11 13 14 12 12 12 11 10 10 8 7 7 6 6 6 5 4 4 4 4 5 4 4
6 15 19 22 23 23 16 16 8 6 4 8 12 16 11 14 11 11 4 1 5 9 12 13 14 12 13 12 11 10 8 7 7 7 7 6 5 5 6 5 5 6 6 6
6 10 14 19 23 25 27 22 17 13 8 10 9 22 19 11 10 10 9 0 4 9 11 12 14 14 14 13 12 11 10 8 8 8 7 7 7 7 8 6 6 6 8 7
14 10 12 19 21 22 25 21 22 19 16 11 13 18 19 17 9 7 9 7 4 3 7 12 15 15 15 15 14 14 12 11 8 9 8 8 8 9 8 7 8 7 9 9
19 16 12 14 16 21 13 11 8 14 16 18 11 17 16 11 8 9 3 6 7 6 3 8 12 15 16 16 15 15 14 12 11 10 9 9 10 9 9 10 9 8 8 9
21 18 11 11 16 17 8 10 13 11 12 13 18 20 16 9 6 6 8 9 8 9 8 8 11 14 16 17 16 16 15 13 12 12 10 10 10 10 10 11 10 8 9 8
15 17 13 12 13 10 12 7 4 4 11 7 10 16 11 9 7 3 11 11 11 10 10 8 7 13 16 17 18 17 16 14 13 13 12 11 11 11 11 11 10 10 10 10
6 9 19 17 14 11 10 10 1 9 6 9 6 5 1 3 4 7 9 9 10 11 12 6 6 12 15 17 18 17 16 15 14 13 13 11 12 11 13 11 10 10 10 11
8 4 5 13 12 21 8 8 9 5 9 6 3 2 3 5 6 7 8 9 11 13 12 1 6 9 13 18 18 17 16 15 15 14 12 13 12 9 10 12 10 10 11 12
7 8 6 6 10 6 3 1 3 5 6 6 3 3 1 6 9 9 9 9 10 11 10 2 5 8 11 15 17 17 16 17 16 14 13 13 12 12 12 12 12 10 10 9
15 9 9 7 12 18 15 9 6 7 4 2 5 4 6 7 9 11 10 9 9 9 9 3 5 8 11 14 17 16 17 17 17 15 14 13 13 13 11 9 9 9 8 8
9 5 10 17 16 15 13 11 10 11 10 7 7 6 10 12 10 10 11 10 10 9 8 4 5 8 11 13 15 16 18 18 16 15 13 13 10 13 11 9 8 8 8 7
9 12 11 10 8 10 14 11 12 12 13 11 8 10 12 12 13 12 11 9 10 9 9 6 5 8 11 12 13 16 18 19 17 15 11 11 10 11 10 9 8 11 11 11
Wind_Direction
204 217 217 233 224 258 272 279 277 278 255 289 266 274 279 278 271 259 257 254 236 230 231 211 192 191 184 179 181 190 191 189 189 198 197 207 217 215 210 227 237 213 212 203
204 232 239 241 253 238 248 265 272 281 291 273 277 283 287 280 264 255 255 254 246 230 214 193 188 184 188 185 188 189 191 196 202 216 221 233 210 227 217 215 225 220 208 206
230 237 241 221 223 234 240 252 266 276 290 286 271 276 264 282 265 256 256 257 259 239 211 188 181 181 180 184 182 186 192 205 209 210 196 200 198 204 193 219 217 216 203 206
260 261 217 214 235 230 253 252 259 271 278 272 347 296 293 286 282 267 278 253 232 217 221 181 177 172 177 168 164 171 183 199 197 191 200 202 207 215 207 194 209 207 202 195
248 227 228 235 235 217 247 201 246 260 267 278 260 262 265 257 283 193 30 37 200 212 192 173 173 165 160 155 157 153 160 181 190 190 208 205 220 220 187 186 214 195 200 200
255 263 256 249 253 229 222 176 224 265 264 249 252 227 268 234 241 254 222 39 159 155 168 160 156 152 148 145 143 131 138 153 171 186 190 216 222 208 204 179 200 176 186 195
246 242 236 234 238 219 208 201 202 246 223 260 56 233 256 252 257 298 309 324 160 155 154 151 154 153 150 148 136 141 150 137 143 129 144 191 158 170 210 151 166 157 176 198
269 271 219 215 223 214 208 207 179 227 247 255 120 238 238 154 256 286 284 245 156 161 147 154 155 148 151 144 143 143 137 127 122 105 125 130 139 162 161 156 149 150 170 190
315 254 264 269 233 225 203 221 227 258 239 272 243 244 262 249 236 229 311 177 165 153 156 161 153 152 151 148 148 145 145 130 122 137 150 127 136 154 153 122 134 176 197 216
317 288 270 277 283 255 224 204 174 175 215 218 230 241 245 35 339 341 293 172 159 149 161 164 158 154 152 147 140 143 146 138 137 151 164 132 164 149 129 103 125 209 221 220
318 279 277 316 243 238 212 225 226 199 229 232 228 235 148 123 347 331 42 167 161 158 163 164 161 158 155 154 153 148 147 144 145 159 146 136 133 104 91 84 61 310 242 235
278 289 279 290 286 324 292 283 226 207 190 228 257 178 147 83 39 356 97 162 168 163 167 168 162 160 161 162 160 146 151 149 145 142 130 123 119 127 115 103 89 350 325 324
328 273 288 269 240 137 42 10 350 328 304 214 208 213 122 102 82 66 93 169 180 174 172 175 165 171 169 168 166 157 152 145 142 140 147 133 122 122 110 94 69 84 24 20
283 257 252 265 292 320 271 301 75 335 282 260 217 128 145 82 339 346 318 211 190 191 181 183 177 184 174 173 168 164 146 153 141 155 130 127 123 115 104 100 57 60 63 52
264 269 266 258 267 281 263 277 255 242 324 290 1 311 313 325 313 326 23 180 195 194 198 195 187 187 183 176 173 156 150 153 147 142 135 127 114 110 94 80 69 71 56 59
260 273 276 278 271 269 276 274 269 252 230 248 294 295 284 285 299 319 326 225 243 213 209 204 200 190 200 183 176 158 156 155 156 140 141 130 121 117 100 96 86 74 65 54
271 263 267 271 267 268 259 262 259 258 231 220 262 269 277 282 297 308 327 329 277 256 214 208 202 201 203 186 181 171 158 150 155 140 141 131 121 114 108 106 92 74 74 74
249 254 264 271 278 260 263 259 265 265 253 182 237 245 266 286 295 318 46 32 12 26 333 243 216 200 199 190 183 166 156 153 152 140 144 135 123 116 115 106 94 81 74 78
226 237 251 261 270 270 238 231 228 217 241 225 202 235 242 271 289 150 23 24 356 336 319 293 231 204 184 191 181 162 159 153 154 147 150 141 131 124 116 105 103 96 91 82
221 223 228 245 254 252 234 219 148 212 236 160 197 228 239 274 246 199 353 351 344 341 327 317 216 185 176 189 176 167 158 158 160 152 148 146 133 126 117 113 106 98 94 98
215 210 206 219 240 263 264 158 265 218 105 137 138 139 261 276 327 331 327 339 334 332 339 337 180 179 176 182 174 173 162 164 157 147 142 141 131 131 124 119 118 115 113 109
270 276 209 224 228 244 161 165 223 96 136 145 154 207 262 280 307 303 324 338 333 334 343 348 181 173 179 178 178 173 171 155 149 144 140 141 133 137 132 127 127 124 120 117
251 227 268 218 242 17 216 246 184 154 144 151 170 154 318 306 303 317 324 337 329 335 343 346 195 173 177 180 183 173 168 151 148 142 140 143 138 138 138 137 134 131 131 129
272 239 245 225 240 248 252 247 230 193 230 258 281 286 311 323 317 318 317 324 318 332 335 311 193 186 176 185 187 177 157 155 151 143 143 147 145 137 144 143 143 139 142 140
272 228 250 252 256 278 271 242 257 236 216 227 250 270 300 306 298 298 305 309 306 316 325 310 200 198 187 184 186 175 163 157 152 143 146 154 145 144 150 146 144 147 142 146
229 242 244 259 266 258 269 269 251 250 259 259 221 271 276 275 285 286 283 289 293 302 314 305 224 195 193 187 184 172 167 162 153 144 150 161 151 148 150 140 123 55 110 102